Weather History for West Plains, MO

Change the Weather History Date:

Sunday, July 13, 2014

  Actual Average Record
Temperature  
Mean Temperature 80 °F 78 °F  
Max Temperature 88 °F 89 °F 105 °F (1954)
Min Temperature 72 °F 67 °F 51 °F (1964)
Degree Days  
Heating Degree Days 0 0  
Month to date heating degree days 0 0  
Since 1 June heating degree days 2 5  
Since 1 July heating degree days 0 0  
Cooling Degree Days 15 13  
Month to date cooling degree days 114 165  
Year to date cooling degree days 529 553  
Since 1 June cooling degree days 379 431  
Growing Degree Days 30 (Base 50)    
Moisture  
Dew Point 70 °F    
Average Humidity 74    
Maximum Humidity 93    
Minimum Humidity 55    
Precipitation  
Precipitation 0.16 in 0.14 in 3.10 in (1956)
Month to date precipitation 1.04 1.56  
Year to date precipitation 18.25 24.85  
Sea Level Pressure  
Sea Level Pressure 30.00 in    
Wind  
Wind Speed 7 mph (SW)    
Max Wind Speed 21 mph    
Max Gust Speed 30 mph    
Visibility 10 miles    
Events Thunderstorm    
T = Trace of Precipitation, MM = Missing Value Source: NWS Daily Summary

Daily Weather History Graph

Daily Weather History Graph

Search for Another Location

Airport:

Trip Planner

Search our weather history database for the weather conditions in past years. The results will help you decide how hot, cold, wet, or windy it might be!

Date:

Astronomy

Jul. 13, 2014 Rise Set
Actual Time 5:58 AM CDT 8:27 PM CDT
Civil Twilight 5:28 AM CDT 8:57 PM CDT
Nautical Twilight 4:51 AM CDT 9:34 PM CDT
Astronomical Twilight 4:10 AM CDT 10:15 PM CDT
Moon 9:20 PM CDT (7/13) 7:26 AM CDT (7/13)
Length of Visible Light 15h 28m
Length of Day
14h 28m
Full, 98% of the Moon is Illuminated
Jul 13
Full
Jul 18
Last Quarter
Jul 26
New
Aug 3
First Quarter
Aug 10
Full

Hourly Weather History & Observations

Time (CDT) Temp. Heat Index Dew Point Humidity Pressure Visibility Wind Dir Wind Speed Gust Speed Precip Events Conditions
12:53 AM 77.0 °F - 70.0 °F 79% 30.05 in 10.0 mi SSW 6.9 mph - N/A   Clear
1:53 AM 75.0 °F - 70.0 °F 84% 30.03 in 10.0 mi SSW 4.6 mph - N/A   Clear
2:53 AM 73.9 °F - 69.1 °F 85% 30.02 in 10.0 mi SW 4.6 mph - N/A   Clear
3:53 AM 73.0 °F - 69.1 °F 87% 30.03 in 10.0 mi SW 4.6 mph - N/A   Clear
4:53 AM 72.0 °F - 69.1 °F 91% 30.03 in 10.0 mi WSW 4.6 mph - N/A   Clear
5:53 AM 72.0 °F - 69.1 °F 91% 30.04 in 10.0 mi SW 5.8 mph - N/A   Mostly Cloudy
6:53 AM 73.0 °F - 69.1 °F 87% 30.04 in 10.0 mi WSW 5.8 mph - N/A   Scattered Clouds
7:53 AM 75.0 °F - 70.0 °F 84% 30.05 in 10.0 mi WSW 4.6 mph - N/A   Overcast
8:53 AM 78.1 °F - 70.0 °F 76% 30.05 in 10.0 mi WSW 6.9 mph - N/A   Overcast
9:53 AM 78.1 °F - 69.1 °F 74% 30.06 in 10.0 mi West 6.9 mph - N/A   Overcast
10:53 AM 80.1 °F 82.9 °F 69.1 °F 69% 30.06 in 10.0 mi West 6.9 mph - N/A   Mostly Cloudy
11:53 AM 84.0 °F 88.4 °F 70.0 °F 63% 30.04 in 10.0 mi West 5.8 mph - N/A   Clear
12:53 PM 86.0 °F 90.7 °F 70.0 °F 59% 30.02 in 10.0 mi SW 9.2 mph - N/A   Clear
1:53 PM 87.1 °F 91.3 °F 69.1 °F 55% 30.01 in 10.0 mi WSW 9.2 mph 17.3 mph N/A   Clear
2:53 PM 88.0 °F 93.8 °F 71.1 °F 57% 29.99 in 10.0 mi WSW 9.2 mph - N/A   Clear
3:53 PM 88.0 °F 94.7 °F 72.0 °F 59% 29.98 in 10.0 mi South 9.2 mph - N/A   Clear
4:53 PM 88.0 °F 94.7 °F 72.0 °F 59% 29.97 in 10.0 mi SSW 10.4 mph - N/A   Clear
5:53 PM 87.1 °F 93.6 °F 72.0 °F 61% 29.96 in 10.0 mi SSW 8.1 mph - N/A   Clear
6:53 PM 84.9 °F 90.1 °F 71.1 °F 63% 29.94 in 10.0 mi SSW 5.8 mph - N/A   Clear
7:53 PM 82.9 °F 87.5 °F 71.1 °F 67% 29.94 in 10.0 mi South 5.8 mph - N/A   Clear
8:53 PM 82.0 °F 86.3 °F 71.1 °F 69% 29.93 in 10.0 mi SSW 5.8 mph - N/A   Mostly Cloudy
9:53 PM 81.0 °F 84.9 °F 71.1 °F 72% 29.93 in 10.0 mi SSW 8.1 mph - N/A   Clear
10:53 PM 81.0 °F 84.9 °F 71.1 °F 72% 29.95 in 10.0 mi SSW 5.8 mph - N/A   Scattered Clouds
11:50 PM 80.6 °F 84.6 °F 71.6 °F 74% 30.00 in 10.0 mi WSW 5.8 mph - N/A Thunderstorm Mostly Cloudy
11:53 PM 80.1 °F 83.8 °F 72.0 °F 76% 29.96 in 10.0 mi WSW 5.8 mph - N/A Thunderstorm Mostly Cloudy